| time (UTC) | temp F | wind direction | speed MPH | gust MPH | rain 1hr in | rain 24hr in | rain mn in | humidity % | barometer mb |
| 20260503211042 | 73 | 240 | 9.0 | 18.0 | 0.00 | 0.00 | 0.00 | 32 | 1003.8 |
| 20260503210542 | 73 | 289 | 6.0 | 18.0 | 0.00 | 0.00 | 0.00 | 32 | 1003.8 |
| 20260503210055 | 73 | 279 | 6.0 | 18.0 | 0.00 | 0.00 | 0.00 | 31 | 1003.8 |
| 20260503205543 | 73 | 295 | 7.0 | 17.0 | 0.00 | 0.00 | 0.00 | 29 | 1003.7 |
| 20260503205041 | 73 | 290 | 9.0 | 17.0 | 0.00 | 0.00 | 0.00 | 30 | 1003.8 |
| 20260503204601 | 73 | 267 | 3.0 | 15.0 | 0.00 | 0.00 | 0.00 | 33 | 1003.9 |
| 20260503204044 | 73 | 264 | 4.0 | 15.0 | 0.00 | 0.00 | 0.00 | 35 | 1003.9 |
| 20260503203542 | 73 | 284 | 7.0 | 15.0 | 0.00 | 0.00 | 0.00 | 31 | 1003.9 |
| 20260503203059 | 73 | 252 | 6.0 | 19.0 | 0.00 | 0.00 | 0.00 | 33 | 1003.9 |
| 20260503202542 | 72 | 263 | 6.0 | 19.0 | 0.00 | 0.00 | 0.00 | 32 | 1004.0 |
| 20260503202041 | 72 | 250 | 7.0 | 16.0 | 0.00 | 0.00 | 0.00 | 32 | 1004.1 |
| 20260503201544 | 72 | 246 | 6.0 | 15.0 | 0.00 | 0.00 | 0.00 | 34 | 1004.2 |
| 20260503201042 | 72 | 279 | 8.0 | 15.0 | 0.00 | 0.00 | 0.00 | 31 | 1004.1 |
| 20260503200543 | 73 | 246 | 5.0 | 14.0 | 0.00 | 0.00 | 0.00 | 33 | 1004.2 |
| 20260503200047 | 73 | 246 | 8.0 | 14.0 | 0.00 | 0.00 | 0.00 | 33 | 1004.2 |
| 20260503195541 | 73 | 269 | 5.0 | 17.0 | 0.00 | 0.00 | 0.00 | 35 | 1004.1 |
| 20260503195042 | 73 | 267 | 8.0 | 17.0 | 0.00 | 0.00 | 0.00 | 33 | 1004.1 |
| 20260503194606 | 73 | 272 | 3.0 | 9.0 | 0.00 | 0.00 | 0.00 | 36 | 1004.1 |
| 20260503194043 | 74 | 289 | 4.0 | 13.0 | 0.00 | 0.00 | 0.00 | 35 | 1004.1 |
| 20260503193543 | 74 | 232 | 4.0 | 13.0 | 0.00 | 0.00 | 0.00 | 36 | 1004.2 |
| 20260503193048 | 73 | 285 | 2.0 | 10.0 | 0.00 | 0.00 | 0.00 | 38 | 1004.2 |
| 20260503192542 | 74 | 234 | 5.0 | 10.0 | 0.00 | 0.00 | 0.00 | 35 | 1004.3 |
| 20260503192042 | 74 | 194 | 3.0 | 7.0 | 0.00 | 0.00 | 0.00 | 34 | 1004.3 |
| 20260503191551 | 74 | 182 | 3.0 | 7.0 | 0.00 | 0.00 | 0.00 | 37 | 1004.4 |
| 20260503191042 | 74 | 263 | 2.0 | 7.0 | 0.00 | 0.00 | 0.00 | 34 | 1004.4 |
| 20260503190542 | 73 | 209 | 2.0 | 7.0 | 0.00 | 0.00 | 0.00 | 37 | 1004.5 |
| 20260503190058 | 73 | 267 | 1.0 | 7.0 | 0.00 | 0.00 | 0.00 | 38 | 1004.5 |
| 20260503185542 | 73 | 259 | 2.0 | 7.0 | 0.00 | 0.00 | 0.00 | 43 | 1004.6 |
| 20260503185042 | 72 | 207 | 3.0 | 10.0 | 0.00 | 0.00 | 0.00 | 40 | 1004.7 |
| 20260503184546 | 71 | 194 | 1.0 | 10.0 | 0.00 | 0.00 | 0.00 | 37 | 1004.7 |
| 20260503184040 | 71 | 248 | 2.0 | 8.0 | 0.00 | 0.00 | 0.00 | 39 | 1004.7 |
| 20260503183542 | 71 | 234 | 3.0 | 8.0 | 0.00 | 0.00 | 0.00 | 37 | 1004.7 |
| 20260503183103 | 71 | 250 | 2.0 | 7.0 | 0.00 | 0.00 | 0.00 | 40 | 1004.8 |
| 20260503182540 | 70 | 216 | 3.0 | 7.0 | 0.00 | 0.00 | 0.00 | 40 | 1004.8 |
| 20260503182042 | 70 | 244 | 1.0 | 7.0 | 0.00 | 0.00 | 0.00 | 39 | 1004.8 |
| 20260503181550 | 70 | 216 | 2.0 | 11.0 | 0.00 | 0.00 | 0.00 | 41 | 1005.0 |
| 20260503181044 | 69 | 329 | 3.0 | 11.0 | 0.00 | 0.00 | 0.00 | 39 | 1005.0 |
| 20260503180543 | 69 | 256 | 3.0 | 9.0 | 0.00 | 0.00 | 0.00 | 38 | 1005.1 |
| 20260503180059 | 69 | 249 | 4.0 | 9.0 | 0.00 | 0.00 | 0.00 | 38 | 1005.1 |
| 20260503175540 | 69 | 276 | 4.0 | 8.0 | 0.00 | 0.00 | 0.00 | 38 | 1005.2 |
| 20260503175042 | 69 | 254 | 4.0 | 8.0 | 0.00 | 0.00 | 0.00 | 42 | 1005.2 |
| 20260503174546 | 69 | 183 | 3.0 | 7.0 | 0.00 | 0.00 | 0.00 | 39 | 1005.2 |
| 20260503174042 | 68 | 215 | 1.0 | 7.0 | 0.00 | 0.00 | 0.00 | 40 | 1005.2 |
| 20260503173542 | 68 | 328 | 3.0 | 6.0 | 0.00 | 0.00 | 0.00 | 41 | 1005.2 |
| 20260503173120 | 68 | 230 | 3.0 | 11.0 | 0.00 | 0.00 | 0.00 | 40 | 1005.2 |
| 20260503172541 | 68 | 182 | 3.0 | 11.0 | 0.00 | 0.00 | 0.00 | 40 | 1005.4 |
| 20260503172041 | 67 | 233 | 2.0 | 8.0 | 0.00 | 0.00 | 0.00 | 41 | 1005.5 |
| 20260503171546 | 67 | 154 | 2.0 | 8.0 | 0.00 | 0.00 | 0.00 | 41 | 1005.5 |
| 20260503171045 | 67 | 181 | 3.0 | 11.0 | 0.00 | 0.00 | 0.00 | 42 | 1005.5 |
| 20260503170542 | 66 | 200 | 3.0 | 11.0 | 0.00 | 0.00 | 0.00 | 41 | 1005.5 |
| 20260503150542 | 61 | 260 | 6.0 | 15.0 | 0.00 | 0.00 | 0.00 | 45 | 1006.1 |
| 20260503131042 | 57 | 198 | 3.0 | 12.0 | 0.00 | 0.00 | 0.00 | 56 | 1006.9 |
| 20260503130540 | 57 | 172 | 2.0 | 9.0 | 0.00 | 0.00 | 0.00 | 58 | 1006.9 |
| 20260503130104 | 57 | 185 | 2.0 | 10.0 | 0.00 | 0.00 | 0.00 | 58 | 1007.0 |
| 20260503110543 | 54 | 133 | 1.0 | 5.0 | 0.00 | 0.00 | 0.00 | 56 | 1007.0 |
| 20260503081556 | 54 | 0 | 0.0 | 2.0 | 0.00 | 0.00 | 0.00 | 48 | 1009.4 |
| 20260503081043 | 54 | 0 | 0.0 | 4.0 | 0.00 | 0.00 | 0.00 | 48 | 1009.5 |
| 20260503080542 | 54 | 0 | 0.0 | 4.0 | 0.00 | 0.00 | 0.00 | 48 | 1009.6 |
| 20260503072541 | 54 | 0 | 0.0 | 2.0 | 0.00 | 0.00 | 0.00 | 49 | 1009.8 |
| 20260503072041 | 54 | 0 | 0.0 | 2.0 | 0.00 | 0.00 | 0.00 | 49 | 1009.9 |
| 20260503071553 | 54 | 0 | 0.0 | 4.0 | 0.00 | 0.00 | 0.00 | 48 | 1010.0 |
| 20260503071041 | 54 | 0 | 0.0 | 4.0 | 0.00 | 0.00 | 0.00 | 47 | 1010.0 |
| 20260503070541 | 54 | 161 | 0.0 | 3.0 | 0.00 | 0.00 | 0.00 | 48 | 1010.0 |
| 20260503055041 | 54 | 0 | 0.0 | 3.0 | 0.00 | 0.00 | 0.00 | 50 | 1010.6 |
| 20260503054550 | 54 | 51 | 0.0 | 4.0 | 0.00 | 0.00 | 0.00 | 50 | 1010.7 |
| 20260503054040 | 54 | 0 | 0.0 | 4.0 | 0.00 | 0.00 | 0.00 | 50 | 1010.7 |
| 20260503053543 | 53 | 0 | 0.0 | 3.0 | 0.00 | 0.00 | 0.00 | 50 | 1010.7 |
| 20260503053055 | 53 | 0 | 0.0 | 2.0 | 0.00 | 0.00 | 0.00 | 51 | 1010.7 |
| 20260503052543 | 53 | 0 | 0.0 | 2.0 | 0.00 | 0.00 | 0.00 | 51 | 1010.8 |
| 20260503052042 | 53 | 0 | 0.0 | 2.0 | 0.00 | 0.00 | 0.00 | 52 | 1010.8 |
| 20260503051553 | 53 | 0 | 0.0 | 2.0 | 0.00 | 0.00 | 0.00 | 52 | 1010.8 |
| 20260503051041 | 53 | 132 | 0.0 | 2.0 | 0.00 | 0.00 | 0.00 | 53 | 1010.8 |
| 20260503050541 | 53 | 0 | 0.0 | 2.0 | 0.00 | 0.00 | 0.00 | 52 | 1010.9 |
| 20260503050048 | 53 | 0 | 0.0 | 2.0 | 0.00 | 0.00 | 0.00 | 53 | 1010.9 |
| 20260503045541 | 53 | 0 | 0.0 | 2.0 | 0.00 | 0.00 | 0.00 | 54 | 1010.9 |
| 20260503045042 | 53 | 0 | 0.0 | 2.0 | 0.00 | 0.00 | 0.00 | 54 | 1010.9 |
| 20260503044555 | 53 | 0 | 0.0 | 2.0 | 0.00 | 0.00 | 0.00 | 55 | 1011.0 |
| 20260503044039 | 52 | 0 | 0.0 | 3.0 | 0.00 | 0.00 | 0.00 | 56 | 1011.0 |
| 20260503043542 | 52 | 0 | 0.0 | 3.0 | 0.00 | 0.00 | 0.00 | 58 | 1011.1 |
| 20260503043049 | 51 | 0 | 0.0 | 2.0 | 0.00 | 0.00 | 0.00 | 60 | 1011.1 |
| 20260503042542 | 51 | 0 | 0.0 | 2.0 | 0.00 | 0.00 | 0.00 | 64 | 1011.1 |
| 20260503042044 | 50 | 0 | 0.0 | 1.0 | 0.00 | 0.00 | 0.00 | 64 | 1011.2 |
| 20260503041549 | 50 | 0 | 0.0 | 0.0 | 0.00 | 0.00 | 0.00 | 67 | 1011.1 |
| 20260503041044 | 50 | 0 | 0.0 | 0.0 | 0.00 | 0.00 | 0.00 | 67 | 1011.2 |
| 20260503040542 | 50 | 0 | 0.0 | 0.0 | 0.00 | 0.00 | 0.00 | 68 | 1011.3 |
| 20260503040048 | 50 | 0 | 0.0 | 0.0 | 0.00 | 0.00 | 0.00 | 66 | 1011.3 |
| 20260503035544 | 50 | 0 | 0.0 | 0.0 | 0.00 | 0.00 | 0.00 | 66 | 1011.4 |
| 20260503035045 | 50 | 0 | 0.0 | 2.0 | 0.00 | 0.00 | 0.00 | 66 | 1011.3 |
| 20260503034550 | 50 | 0 | 0.0 | 2.0 | 0.00 | 0.00 | 0.00 | 67 | 1011.4 |
| 20260503034043 | 50 | 0 | 1.0 | 2.0 | 0.00 | 0.00 | 0.00 | 67 | 1011.5 |
| 20260503033544 | 50 | 0 | 0.0 | 0.0 | 0.00 | 0.00 | 0.00 | 67 | 1011.6 |
| 20260503033049 | 51 | 0 | 0.0 | 0.0 | 0.00 | 0.00 | 0.00 | 67 | 1011.6 |
| 20260503032543 | 51 | 0 | 0.0 | 0.0 | 0.00 | 0.00 | 0.00 | 65 | 1011.6 |
| 20260503032043 | 51 | 0 | 0.0 | 0.0 | 0.00 | 0.00 | 0.00 | 65 | 1011.8 |
| 20260503031557 | 51 | 0 | 0.0 | 0.0 | 0.00 | 0.00 | 0.00 | 64 | 1011.7 |
| 20260503031041 | 51 | 0 | 0.0 | 0.0 | 0.00 | 0.00 | 0.00 | 64 | 1011.9 |
| 20260503030543 | 51 | 0 | 0.0 | 0.0 | 0.00 | 0.00 | 0.00 | 63 | 1011.9 |
| 20260503030050 | 51 | 0 | 0.0 | 0.0 | 0.00 | 0.00 | 0.00 | 63 | 1011.9 |
| 20260503025543 | 52 | 0 | 0.0 | 0.0 | 0.00 | 0.00 | 0.00 | 63 | 1012.0 |
| 20260503025043 | 52 | 0 | 0.0 | 0.0 | 0.00 | 0.00 | 0.00 | 62 | 1012.0 |
| 20260503024548 | 52 | 0 | 0.0 | 0.0 | 0.00 | 0.00 | 0.00 | 62 | 1012.0 |
| 20260503024043 | 53 | 0 | 0.0 | 0.0 | 0.00 | 0.00 | 0.00 | 61 | 1012.0 |
| 20260503023543 | 53 | 0 | 0.0 | 0.0 | 0.00 | 0.00 | 0.00 | 59 | 1012.0 |
| 20260503023050 | 53 | 0 | 0.0 | 2.0 | 0.00 | 0.00 | 0.00 | 58 | 1012.1 |
| 20260503022543 | 54 | 0 | 0.0 | 2.0 | 0.00 | 0.00 | 0.00 | 58 | 1012.1 |
| 20260503022043 | 54 | 216 | 1.0 | 2.0 | 0.00 | 0.00 | 0.00 | 57 | 1012.1 |
| 20260503021550 | 55 | 0 | 0.0 | 2.0 | 0.00 | 0.00 | 0.00 | 56 | 1012.1 |
| 20260503021044 | 55 | 0 | 1.0 | 2.0 | 0.00 | 0.00 | 0.00 | 54 | 1012.1 |
| 20260503020543 | 55 | 0 | 0.0 | 2.0 | 0.00 | 0.00 | 0.00 | 52 | 1012.1 |
| 20260503020056 | 56 | 0 | 0.0 | 2.0 | 0.00 | 0.00 | 0.00 | 52 | 1012.1 |
| 20260503015543 | 56 | 0 | 0.0 | 1.0 | 0.00 | 0.00 | 0.00 | 50 | 1012.0 |
| 20260503015042 | 57 | 0 | 0.0 | 1.0 | 0.00 | 0.00 | 0.00 | 51 | 1012.0 |
| 20260503014555 | 57 | 0 | 0.0 | 1.0 | 0.00 | 0.00 | 0.00 | 48 | 1012.0 |
| 20260503014042 | 58 | 0 | 0.0 | 1.0 | 0.00 | 0.00 | 0.00 | 48 | 1012.0 |
| 20260503013543 | 58 | 0 | 0.0 | 1.0 | 0.00 | 0.00 | 0.00 | 45 | 1012.0 |
| 20260503013053 | 59 | 0 | 0.0 | 1.0 | 0.00 | 0.00 | 0.00 | 45 | 1012.0 |
| 20260503012543 | 59 | 0 | 0.0 | 1.0 | 0.00 | 0.00 | 0.00 | 44 | 1012.0 |
| 20260503012059 | 59 | 0 | 0.0 | 0.0 | 0.00 | 0.00 | 0.00 | 43 | 1012.0 |
| 20260503011550 | 60 | 0 | 0.0 | 1.0 | 0.00 | 0.00 | 0.00 | 42 | 1012.0 |
| 20260503011042 | 60 | 0 | 0.0 | 1.0 | 0.00 | 0.00 | 0.00 | 40 | 1012.1 |
| 20260503010544 | 60 | 0 | 0.0 | 3.0 | 0.00 | 0.00 | 0.00 | 39 | 1012.1 |
| 20260503010051 | 60 | 216 | 0.0 | 3.0 | 0.00 | 0.00 | 0.00 | 38 | 1012.1 |
| 20260503005542 | 60 | 229 | 0.0 | 3.0 | 0.00 | 0.00 | 0.00 | 38 | 1012.1 |
| 20260503005043 | 61 | 0 | 1.0 | 6.0 | 0.00 | 0.00 | 0.00 | 38 | 1012.2 |
| 20260503004547 | 61 | 248 | 1.0 | 6.0 | 0.00 | 0.00 | 0.00 | 37 | 1012.2 |
| 20260503004042 | 61 | 256 | 2.0 | 5.0 | 0.00 | 0.00 | 0.00 | 37 | 1012.1 |
| 20260503003543 | 61 | 221 | 2.0 | 5.0 | 0.00 | 0.00 | 0.00 | 36 | 1012.2 |
| 20260503003050 | 61 | 258 | 1.0 | 5.0 | 0.00 | 0.00 | 0.00 | 37 | 1012.2 |
| 20260503002542 | 62 | 215 | 3.0 | 5.0 | 0.00 | 0.00 | 0.00 | 36 | 1012.3 |
| 20260503002042 | 62 | 233 | 2.0 | 10.0 | 0.00 | 0.00 | 0.00 | 37 | 1012.2 |
| 20260503001608 | 62 | 250 | 3.0 | 10.0 | 0.00 | 0.00 | 0.00 | 36 | 1012.3 |
| 20260503001043 | 62 | 263 | 3.0 | 9.0 | 0.00 | 0.00 | 0.00 | 35 | 1012.4 |
| 20260503000543 | 62 | 286 | 4.0 | 11.0 | 0.00 | 0.00 | 0.00 | 34 | 1012.4 |
| 20260503000113 | 62 | 258 | 5.0 | 11.0 | 0.00 | 0.00 | 0.00 | 34 | 1012.3 |
| 20260502235545 | 62 | 313 | 6.0 | 11.0 | 0.00 | 0.00 | 0.00 | 36 | 1012.4 |
| 20260502235043 | 62 | 238 | 5.0 | 11.0 | 0.00 | 0.00 | 0.00 | 34 | 1012.4 |
| 20260502234554 | 62 | 265 | 4.0 | 11.0 | 0.00 | 0.00 | 0.00 | 35 | 1012.5 |
| 20260502234043 | 62 | 212 | 3.0 | 9.0 | 0.00 | 0.00 | 0.00 | 36 | 1012.5 |
| 20260502233543 | 62 | 276 | 4.0 | 8.0 | 0.00 | 0.00 | 0.00 | 34 | 1012.7 |
| 20260502233048 | 63 | 268 | 3.0 | 8.0 | 0.00 | 0.00 | 0.00 | 33 | 1012.7 |
| 20260502232542 | 63 | 195 | 3.0 | 9.0 | 0.00 | 0.00 | 0.00 | 33 | 1012.7 |
| 20260502232042 | 63 | 0 | 4.0 | 11.0 | 0.00 | 0.00 | 0.00 | 32 | 1012.7 |
| 20260502231615 | 64 | 243 | 4.0 | 12.0 | 0.00 | 0.00 | 0.00 | 32 | 1012.8 |
| 20260502231042 | 64 | 262 | 6.0 | 12.0 | 0.00 | 0.00 | 0.00 | 32 | 1012.8 |
| 20260502230542 | 64 | 243 | 5.0 | 15.0 | 0.00 | 0.00 | 0.00 | 31 | 1012.8 |
| 20260502230047 | 64 | 257 | 6.0 | 15.0 | 0.00 | 0.00 | 0.00 | 31 | 1012.8 |
| 20260502225543 | 64 | 238 | 7.0 | 15.0 | 0.00 | 0.00 | 0.00 | 31 | 1012.9 |
| 20260502225042 | 64 | 229 | 6.0 | 16.0 | 0.00 | 0.00 | 0.00 | 30 | 1013.0 |
| 20260502224556 | 64 | 202 | 8.0 | 16.0 | 0.00 | 0.00 | 0.00 | 31 | 1013.1 |
| 20260502224043 | 64 | 232 | 6.0 | 15.0 | 0.00 | 0.00 | 0.00 | 32 | 1013.2 |
| 20260502223543 | 64 | 236 | 4.0 | 15.0 | 0.00 | 0.00 | 0.00 | 32 | 1013.2 |
| 20260502223049 | 64 | 216 | 7.0 | 15.0 | 0.00 | 0.00 | 0.00 | 32 | 1013.2 |
| 20260502222542 | 63 | 211 | 6.0 | 13.0 | 0.00 | 0.00 | 0.00 | 32 | 1013.2 |
| 20260502222041 | 63 | 259 | 4.0 | 11.0 | 0.00 | 0.00 | 0.00 | 33 | 1013.3 |
| 20260502221556 | 63 | 245 | 4.0 | 10.0 | 0.00 | 0.00 | 0.00 | 32 | 1013.4 |
| 20260502221042 | 63 | 257 | 5.0 | 15.0 | 0.00 | 0.00 | 0.00 | 31 | 1013.5 |
| 20260502220543 | 64 | 229 | 8.0 | 15.0 | 0.00 | 0.00 | 0.00 | 32 | 1013.5 |
| 20260502220053 | 64 | 229 | 6.0 | 15.0 | 0.00 | 0.00 | 0.00 | 30 | 1013.5 |
| 20260502215543 | 64 | 218 | 8.0 | 15.0 | 0.00 | 0.00 | 0.00 | 30 | 1013.6 |
| 20260502215043 | 64 | 230 | 7.0 | 14.0 | 0.00 | 0.00 | 0.00 | 30 | 1013.6 |
| 20260502214555 | 64 | 241 | 4.0 | 11.0 | 0.00 | 0.00 | 0.00 | 29 | 1013.6 |
| 20260502214042 | 64 | 284 | 5.0 | 13.0 | 0.00 | 0.00 | 0.00 | 30 | 1013.6 |
| 20260502213542 | 64 | 236 | 6.0 | 13.0 | 0.00 | 0.00 | 0.00 | 30 | 1013.7 |
| 20260502213056 | 64 | 277 | 7.0 | 13.0 | 0.00 | 0.00 | 0.00 | 29 | 1013.8 |
| 20260502212546 | 64 | 238 | 4.0 | 12.0 | 0.00 | 0.00 | 0.00 | 30 | 1013.8 |
| 20260502212042 | 63 | 275 | 5.0 | 14.0 | 0.00 | 0.00 | 0.00 | 31 | 1013.9 |
| 20260502211551 | 63 | 212 | 7.0 | 14.0 | 0.00 | 0.00 | 0.00 | 31 | 1013.9 |